Vertical_Velocity
-1 -0 -0 0 -0 -2 -1 -2 -3 -2 4 -0 -1 0 -0 -2 -4 0 0 -2 -1 -1
1 2 1 -2 -3 -1 -3 -1 -2 -4 -4 -1 -2 -3 1 -0 -1 -0 -3 -2 -2 -2
2 0 -2 -2 -2 -3 -2 -2 -1 -2 -3 -3 -2 0 0 -2 -1 3 -2 -1 0 -3
-3 -2 -2 0 -0 -0 -0 0 -1 -2 -1 -2 1 -2 -1 -1 -2 -1 -2 -4 1 -2
-2 -1 -1 -1 0 1 1 -0 0 -0 -2 -1 -1 -2 -1 1 -1 -0 -0 -2 -0 -1
1 1 0 -0 -1 -2 -1 -0 -2 0 -0 -1 -1 -1 -1 1 -1 -1 -1 -1 -1 -2
1 0 -0 -1 -1 0 1 0 -1 -2 -1 -2 -2 -2 -2 -0 -1 -2 -3 -4 -2 -1
-0 0 1 0 1 -1 -2 -1 0 0 -1 -1 -0 -1 -1 -1 -1 -2 -2 -3 -1 2
-1 -1 0 -1 -2 -1 -1 -1 -1 0 1 -1 -3 -1 -2 0 0 -2 -2 0 -1 -3
-1 -1 -1 -0 -0 0 0 -0 -2 -2 -1 -0 -1 0 -0 -0 -0 -1 -4 -3 -2 0
0 1 1 1 0 -0 1 -1 -1 1 1 3 -1 -1 -2 -1 -2 -2 -0 1 -2 -2
-0 2 2 0 1 1 3 1 1 0 2 1 2 -1 1 -1 -3 2 0 -3 -3 -2
3 4 3 5 5 1 1 4 2 3 -2 -0 5 -2 1 -2 -1 -0 -5 -3 -2 -2
-1 1 -1 1 -3 1 -2 -2 1 -1 -0 -0 -5 2 -3 -1 1 -4 0 -3 1 1
Height
5781 5777 5773 5769 5766 5762 5759 5755 5752 5749 5746 5742 5738 5735 5731 5728 5725 5723 5720 5717 5714 5711
5768 5764 5761 5758 5755 5751 5747 5744 5740 5736 5733 5729 5725 5722 5719 5716 5713 5710 5707 5704 5701 5698
5755 5752 5749 5746 5742 5738 5734 5731 5727 5723 5719 5716 5712 5709 5706 5703 5700 5697 5693 5691 5687 5683
5744 5740 5737 5733 5729 5725 5721 5717 5713 5709 5706 5702 5699 5696 5693 5690 5687 5683 5679 5676 5672 5667
5730 5727 5723 5719 5715 5711 5707 5704 5700 5696 5692 5689 5685 5682 5679 5675 5672 5668 5664 5660 5656 5652
5716 5712 5708 5704 5700 5696 5693 5689 5685 5681 5678 5674 5670 5667 5663 5659 5655 5652 5648 5644 5640 5635
5702 5698 5693 5690 5686 5681 5677 5674 5670 5666 5663 5659 5656 5652 5648 5645 5641 5638 5634 5629 5624 5619
5687 5682 5678 5674 5670 5666 5662 5658 5654 5651 5647 5643 5640 5636 5633 5629 5625 5621 5617 5612 5607 5603
5671 5668 5664 5660 5656 5651 5647 5643 5639 5635 5632 5628 5624 5621 5617 5614 5609 5604 5600 5596 5591 5586
5656 5652 5647 5643 5639 5635 5632 5628 5625 5621 5617 5613 5609 5605 5601 5597 5592 5588 5583 5580 5575 5571
5639 5635 5630 5626 5623 5620 5617 5613 5610 5605 5601 5598 5592 5589 5585 5581 5577 5572 5567 5563 5558 5554
5622 5618 5615 5611 5607 5604 5601 5597 5593 5589 5585 5582 5576 5573 5569 5566 5561 5556 5551 5546 5541 5537
5605 5602 5598 5594 5591 5588 5584 5581 5577 5573 5568 5564 5561 5556 5552 5548 5544 5539 5534 5528 5524 5520
5589 5586 5581 5578 5573 5570 5567 5564 5560 5557 5552 5547 5543 5538 5533 5528 5524 5521 5517 5512 5509 5505